Location: Toronto
(43.6532°N, 79.3832°W)
Time: 09:21:03
(UTC-05:00)

ISS - Visible Passes

Search period start: 05 March 2021 00:00
Search period end: 15 March 2021 01:00
Orbit: 417 x 421 km, 51.6° (Epoch: 05 March)

Date Brightness Start Highest point End Pass type
(mag) Time Alt. Az. Time Alt. Az. Time Alt. Az.
05 Mar -1.8 05:08:53 19° NNW 05:10:02 22° N 05:12:45 10° ENE visible
06 Mar -1.2 04:23:14 19° NNE 04:23:14 19° NNE 04:24:59 10° NE visible
06 Mar -2.7 05:56:34 10° NW 05:59:47 41° NNE 06:03:00 10° E visible
07 Mar -2.2 05:10:35 20° NNW 05:12:12 31° NNE 05:15:14 10° E visible
08 Mar -1.6 04:25:03 24° NNE 04:25:03 24° NNE 04:27:25 10° ENE visible
08 Mar -3.8 05:58:19 10° WNW 06:01:42 89° SW 06:05:03 10° ESE visible
09 Mar -0.1 03:39:34 10° ENE 03:39:34 10° ENE 03:39:36 10° ENE visible
09 Mar -3.3 05:12:32 26° NW 05:14:11 59° NNE 05:17:30 10° ESE visible
10 Mar -2.3 04:27:10 37° NE 04:27:10 37° NE 04:29:49 10° E visible
10 Mar -2.9 06:00:19 10° WNW 06:03:22 32° SW 06:06:24 10° SSE visible
11 Mar -0.3 03:41:55 11° E 03:41:55 11° E 03:42:03 10° E visible
11 Mar -3.6 05:14:54 36° W 05:15:57 54° SW 05:19:14 10° SE visible
12 Mar -2.4 04:29:49 34° SE 04:29:49 34° SE 04:31:50 10° ESE visible
12 Mar -1.6 06:03:22 10° WSW 06:04:48 12° SW 06:06:14 10° SSW visible
13 Mar -2.2 05:17:55 20° SW 05:17:55 20° SW 05:20:01 10° S visible
